This demonstration page uses our WeatherBlox Daily Observations layout. Learn more.

Left ArrowRight Arrow

41.12389, -100.76542

Hourly Observations for November 7, 2016

Temp ( °F °C ) Dew Point ( °F °C ) Humidity (%) Winds ( mph kmh ) Pressure ( in mb ) Visibility ( mi km ) Precip ( " mm )
12:16 am 00:16 Cloudy 55 13 54 12 94 94 SSE 9 15 30.03 1017 10 16 0.00 0.00
12:53 am 00:53 Cloudy 56 13.3 53 11.7 90 90 S 10 17 30.02 1017 10 16 0.00 0.00
1:53 am 01:53 Cloudy with Mist and Fog 55 12.8 53 11.7 93 93 S 8 13 30.02 1017 6 10 0.00 0.00
2:53 am 02:53 Cloudy with Mist and Fog 55 12.8 53 11.7 93 93 SSE 6 9 30.02 1017 6 10 0.00 0.00
3:16 am 03:16 Cloudy 56 13.3 53 11.7 90 90 SSE 8 13 30.03 1017 7 11 0.00 0.00
3:53 am 03:53 Cloudy 56 13.3 53 11.7 90 90 SSE 5 7 30.02 1017 8 13 0.00 0.00
4:53 am 04:53 Cloudy with Mist and Fog 55 12.8 53 11.7 93 93 SE 6 9 30.02 1017 6 10 0.00 0.00
5:20 am 05:20 Cloudy with Mist and Fog 55 12.8 53 11.7 93 93 ENE 5 7 30.06 1018 6 10 0.00 0.00
5:44 am 05:44 Cloudy with Mist and Fog 54 12 54 12 100 100 E 3 6 30.06 1018 2 3 0.00 0.00
5:51 am 05:51 Cloudy with Mist and Fog 54 12 54 12 100 100 E 3 6 30.06 1018 1 2 0.00 0.00
5:53 am 05:53 Cloudy with Mist and Fog 54 12.2 53 11.7 97 97 E 3 6 30.06 1018 1 2 0.00 0.00
6:03 am 06:03 Mostly Cloudy with Mist and Fog 54 12 54 12 100 100 E 3 6 30.06 1018 1 1 0.00 0.00
6:53 am 06:53 Mostly Cloudy with Fog 53 11.7 53 11.7 100 100 ENE 5 7 30.09 1019 1 1 0.00 0.00
7:16 am 07:16 Mostly Cloudy with Fog 54 12 54 12 100 100 Calm 30.12 1020 0 0 0.00 0.00
7:53 am 07:53 Mostly Cloudy with Fog 54 12.2 53 11.7 97 97 Calm 30.11 1020 5 8 0.00 0.00
8:53 am 08:53 Mostly Cloudy with Fog 54 12.2 53 11.7 97 97 NNW 3 6 30.15 1021 0 0 0.00 0.00
9:05 am 09:05 Mostly Cloudy with Fog 54 12.2 53 11.7 97 97 Calm 30.15 1021 1 1 0.00 0.00
9:19 am 09:19 Cloudy with Mist and Fog 55 13 54 12 94 94 Calm 30.12 1020 2 2 0.00 0.00
9:24 am 09:24 Cloudy with Mist and Fog 55 12.8 54 12.2 96 96 NNW 3 6 30.12 1020 3 5 0.00 0.00
9:44 am 09:44 Cloudy with Mist and Fog 55 13 54 12 94 94 NNW 5 7 30.12 1020 4 6 0.00 0.00
9:51 am 09:51 Cloudy 55 13 52 11 88 88 N 14 22 30.12 1020 7 11 0.00 0.00
9:53 am 09:53 Cloudy 56 13.3 51 10.6 84 84 N 13 20 30.16 1022 8 13 0.00 0.00
10:13 am 10:13 Partly Cloudy 60 15.6 45 7.2 58 58 NNE 16 26 30.09 1019 10 16 0.00 0.00
10:53 am 10:53 Sunny 62 16.7 41 5 46 46 NNE 18 30 30.16 1021 10 16 0.00 0.00
11:53 am 11:53 Sunny 63 17.2 37 2.8 38 38 NNE 17 28 30.17 1022 10 16 0.00 0.00
12:53 pm 12:53 Sunny 66 18.9 35 1.7 32 32 NNE 20 31 30.18 1022 10 16 0.00 0.00
1:53 pm 13:53 Sunny 68 20 32 0 26 26 NNE 20 31 30.19 1022 10 16 0.00 0.00
2:53 pm 14:53 Sunny 67 19.4 33 0.6 28 28 NE 16 26 30.19 1023 10 16 0.00 0.00
3:53 pm 15:53 Sunny 66 18.9 32 0 28 28 NE 14 22 30.21 1023 10 16 0.00 0.00
4:53 pm 16:53 Sunny 63 17.2 32 0 31 31 NE 9 15 30.24 1024 10 16 0.00 0.00
5:53 pm 17:53 Clear 53 11.7 31 -0.6 43 43 NNE 5 7 30.29 1026 10 16 0.00 0.00
6:53 pm 18:53 Clear 44 6.7 31 -0.6 60 60 VRB 3 6 30.34 1028 10 16 0.00 0.00
7:53 pm 19:53 Clear 44 6.7 30 -1.1 58 58 Calm 30.36 1028 10 16 0.00 0.00
8:53 pm 20:53 Clear 40 4.4 30 -1.1 68 68 W 3 6 30.39 1029 10 16 0.00 0.00
9:53 pm 21:53 Clear 40 4.4 29 -1.7 65 65 Calm 30.40 1029 10 16 0.00 0.00
10:53 pm 22:53 Clear 39 3.9 30 -1.1 70 70 Calm 30.40 1030 10 16 0.00 0.00
11:53 pm 23:53 Clear 37 2.8 31 -0.6 79 79 Calm 30.42 1030 10 16 0.00 0.00

Powered by AerisWeather